Time,TemperatureF,DewpointF,PressureIn,WindDirection,WindDirectionDegrees,WindSpeedMPH,WindSpeedGustMPH,Humidity,HourlyPrecipIn,Conditions,Clouds,dailyrainin,SoftwareType,DateUTC
2013-01-31 00:00:00,57.8,55.8,28.97,North,0,0.0,0.0,93,0.00,,,0.00,WUHU216HW,2013-01-31 05:00:00,
2013-01-31 00:01:00,57.8,55.8,28.97,North,0,0.0,0.0,93,0.00,,,0.00,WUHU216HW,2013-01-31 05:01:00,
2013-01-31 00:03:00,57.8,55.8,28.97,North,0,0.0,0.0,93,0.00,,,0.00,WUHU216HW,2013-01-31 05:03:00,
2013-01-31 00:08:00,57.8,55.8,28.97,North,0,0.0,0.0,93,0.00,,,0.00,WUHU216HW,2013-01-31 05:08:00,
2013-01-31 00:29:00,57.8,55.8,28.94,North,0,0.0,0.0,93,0.00,,,0.00,WUHU216HW,2013-01-31 05:29:00,
2013-01-31 00:34:00,57.8,55.8,28.94,North,0,0.0,0.0,93,0.00,,,0.00,WUHU216HW,2013-01-31 05:34:00,
2013-01-31 00:59:00,58.3,56.0,28.91,North,0,0.0,0.0,92,0.00,,,0.00,WUHU216HW,2013-01-31 05:59:00,
2013-01-31 01:04:00,58.3,56.0,28.91,North,0,0.0,0.0,92,0.00,,,0.00,WUHU216HW,2013-01-31 06:04:00,
2013-01-31 01:29:00,58.7,56.3,28.87,North,0,0.0,0.0,92,0.00,,,0.00,WUHU216HW,2013-01-31 06:29:00,
2013-01-31 01:34:00,58.7,56.3,28.87,North,0,0.0,0.0,92,0.00,,,0.00,WUHU216HW,2013-01-31 06:34:00,
2013-01-31 01:59:00,59.0,56.7,28.85,North,0,0.0,0.0,92,0.00,,,0.00,WUHU216HW,2013-01-31 06:59:00,
2013-01-31 02:04:00,59.0,56.7,28.85,North,0,0.0,0.0,92,0.00,,,0.00,WUHU216HW,2013-01-31 07:04:00,
2013-01-31 02:29:00,59.2,57.3,28.81,North,0,0.0,0.0,93,0.00,,,0.00,WUHU216HW,2013-01-31 07:29:00,
2013-01-31 02:34:00,59.2,57.3,28.81,North,0,0.0,0.0,93,0.00,,,0.00,WUHU216HW,2013-01-31 07:34:00,
2013-01-31 02:59:00,59.2,56.9,28.77,North,0,0.0,0.0,92,0.00,,,0.00,WUHU216HW,2013-01-31 07:59:00,
2013-01-31 03:04:00,59.2,56.9,28.77,North,0,0.0,0.0,92,0.00,,,0.00,WUHU216HW,2013-01-31 08:04:00,
2013-01-31 03:29:00,59.2,57.3,28.73,North,0,0.0,0.0,93,0.00,,,0.00,WUHU216HW,2013-01-31 08:29:00,
2013-01-31 03:34:00,59.2,57.3,28.73,North,0,0.0,0.0,93,0.00,,,0.00,WUHU216HW,2013-01-31 08:34:00,
2013-01-31 03:59:00,59.9,57.1,28.68,North,0,0.0,0.0,90,0.00,,,0.00,WUHU216HW,2013-01-31 08:59:00,
2013-01-31 04:04:00,59.9,57.1,28.68,North,0,0.0,0.0,90,0.00,,,0.00,WUHU216HW,2013-01-31 09:04:00,
2013-01-31 04:29:00,60.7,57.4,28.65,North,0,0.0,0.0,89,0.00,,,0.00,WUHU216HW,2013-01-31 09:29:00,
2013-01-31 04:34:00,60.7,57.4,28.65,North,0,0.0,0.0,89,0.00,,,0.00,WUHU216HW,2013-01-31 09:34:00,
2013-01-31 15:59:00,41.9,23.0,28.83,North,0,0.0,0.0,47,0.00,,,0.00,WUHU216HW,2013-01-31 20:59:00,
2013-01-31 16:00:00,41.9,23.0,28.83,North,0,0.0,0.0,47,0.00,,,0.00,WUHU216HW,2013-01-31 21:00:00,
2013-01-31 16:04:00,41.9,23.0,28.83,North,0,0.0,0.0,47,0.00,,,0.00,WUHU216HW,2013-01-31 21:04:00,
2013-01-31 16:09:00,41.9,23.0,28.83,North,0,0.0,0.0,47,0.00,,,0.00,WUHU216HW,2013-01-31 21:09:00,
2013-01-31 16:30:00,40.5,22.8,28.85,North,0,0.0,0.0,49,0.00,,,0.00,WUHU216HW,2013-01-31 21:30:00,
2013-01-31 16:35:00,40.1,22.4,28.85,North,0,0.0,0.0,49,0.00,,,0.00,WUHU216HW,2013-01-31 21:35:00,
2013-01-31 16:40:00,40.1,22.4,28.85,North,0,0.0,0.0,49,0.00,,,0.00,WUHU216HW,2013-01-31 21:40:00,
2013-01-31 17:00:00,39.1,22.0,28.87,North,0,0.0,0.0,50,0.00,,,0.00,WUHU216HW,2013-01-31 22:00:00,
2013-01-31 17:05:00,39.1,22.0,28.87,North,0,0.0,0.0,50,0.00,,,0.00,WUHU216HW,2013-01-31 22:05:00,
2013-01-31 17:30:00,38.2,21.6,28.89,North,0,0.0,0.0,51,0.00,,,0.00,WUHU216HW,2013-01-31 22:30:00,
2013-01-31 17:35:00,38.2,21.6,28.89,North,0,0.0,0.0,51,0.00,,,0.00,WUHU216HW,2013-01-31 22:35:00,
2013-01-31 18:30:00,36.4,20.9,28.93,North,0,0.0,0.0,53,0.00,,,0.00,WUHU216HW,2013-01-31 23:30:00,
2013-01-31 18:35:00,36.4,20.9,28.93,North,0,0.0,0.0,53,0.00,,,0.00,WUHU216HW,2013-01-31 23:35:00,
2013-01-31 19:00:00,35.8,21.3,28.96,North,0,0.0,0.0,55,0.00,,,0.00,WUHU216HW,2013-02-01 00:00:00,
2013-01-31 19:05:00,35.8,21.3,28.96,North,0,0.0,0.0,55,0.00,,,0.00,WUHU216HW,2013-02-01 00:05:00,
2013-01-31 19:30:00,34.9,20.8,28.97,North,0,0.0,0.0,56,0.00,,,0.00,WUHU216HW,2013-02-01 00:30:00,
2013-01-31 19:35:00,34.9,20.8,28.97,North,0,0.0,0.0,56,0.00,,,0.00,WUHU216HW,2013-02-01 00:35:00,
2013-01-31 20:00:00,34.4,20.3,28.99,North,0,0.0,0.0,56,0.00,,,0.00,WUHU216HW,2013-02-01 01:00:00,
2013-01-31 20:05:00,34.4,20.3,28.99,North,0,0.0,0.0,56,0.00,,,0.00,WUHU216HW,2013-02-01 01:05:00,
2013-01-31 20:30:00,34.2,19.6,29.01,North,0,0.0,0.0,55,0.00,,,0.00,WUHU216HW,2013-02-01 01:30:00,
2013-01-31 20:35:00,34.2,19.6,29.01,North,0,0.0,0.0,55,0.00,,,0.00,WUHU216HW,2013-02-01 01:35:00,
2013-01-31 21:00:00,32.9,19.4,29.01,North,0,0.0,0.0,57,0.00,,,0.00,WUHU216HW,2013-02-01 02:00:00,
2013-01-31 21:05:00,32.9,19.4,29.01,North,0,0.0,0.0,57,0.00,,,0.00,WUHU216HW,2013-02-01 02:05:00,
2013-01-31 21:30:00,32.8,18.7,29.03,North,0,0.0,0.0,56,0.00,,,0.00,WUHU216HW,2013-02-01 02:30:00,
2013-01-31 21:35:00,32.8,18.7,29.03,North,0,0.0,0.0,56,0.00,,,0.00,WUHU216HW,2013-02-01 02:35:00,
2013-01-31 22:00:00,31.9,19.2,29.05,North,0,0.0,0.0,59,0.00,,,0.00,WUHU216HW,2013-02-01 03:00:00,
2013-01-31 22:05:00,31.9,19.2,29.05,North,0,0.0,0.0,59,0.00,,,0.00,WUHU216HW,2013-02-01 03:05:00,
2013-01-31 22:30:00,31.3,18.6,29.06,North,0,0.0,0.0,59,0.00,,,0.00,WUHU216HW,2013-02-01 03:30:00,
2013-01-31 22:35:00,31.3,18.6,29.06,North,0,0.0,0.0,59,0.00,,,0.00,WUHU216HW,2013-02-01 03:35:00,
2013-01-31 23:00:00,31.0,17.5,29.06,North,0,0.0,0.0,57,0.00,,,0.00,WUHU216HW,2013-02-01 04:00:00,
2013-01-31 23:05:00,31.0,17.5,29.06,North,0,0.0,0.0,57,0.00,,,0.00,WUHU216HW,2013-02-01 04:05:00,
2013-01-31 23:30:00,30.4,17.7,29.06,North,0,0.0,0.0,59,0.00,,,0.00,WUHU216HW,2013-02-01 04:30:00,
2013-01-31 23:35:00,30.4,17.7,29.06,North,0,0.0,0.0,59,0.00,,,0.00,WUHU216HW,2013-02-01 04:35:00,